COSMOS 1275 DEB, 12692

Orbit data source: Space-Track

COSMOS 1275 DEB, 12692 is space debris in LEO originally from a launch on Thu, 04 Jun 1981 UTC launched from the Plesetsk Missile And Space Complex (PKMTR). Debris objects in space refer to the collection of defunct objects orbiting the Earth. Examples of debris include non-operational satellites, rocket bodies, and fragments generated from explosions, collisions, or faulty payload assembly.

Loading next visibility...
COSMOS 1275 DEB details
Identifier
12692, 1981-053AL
Orbit
LEO
Last TLE update8 hours ago
Origin
Flag of CISVMF (CIS)
ManufacturerUnknown
MissionSpacecraft
Bus & MotorUnknown
MassUnknown
Launch date (UTC)
1981-06-04 (44 years ago)
Launch vehicleUnknown
Launch site
Plesetsk Missile And Space Complex (PKMTR)
Object type
Payload
Rocket body
Debris
Shape & HBRUnknown
Radar Cross Section0.500 m², Medium (>0.1 m² and < 1m²)

Expand to show TLE details & history

TLE from 8 hours ago
0 COSMOS 1275 DEB
1 12692U 81053AL  25025.49576836  .00003961  00000-0  14509-2 0  9999
2 12692  82.8963  90.3863 0071289 125.5376 235.2487 14.31257434245324
Epoch: 2025-01-25T11:53Z
Definitive object data (Epoch: 2025-01-25T11:53:54.386Z)
Latitude-0.00003°
Longitude146.86593°
Altitude819.877 km
Speed7.428 km/s
True Right ascension06h 01m 32s
True Declination0° 00' 00"
Sunlit
Object was in full shadow at TLE epoch
Visualization TLE readout
Latitude-27.30228°
Longitude142.91537°
Altitude842.68 km
Speed7.407 km/s
Apparent Right ascension07h 21m 44s
Apparent Declination-36° 20' 43"
Sunlit
Object is in full shadow
Visualization observer readout
Local Sidereal Time21:30:34
Azimuth92.303° ESE
Elevation-64.552°
Doppler factor1
Orbital elements
Apogee altitude835.666 km
Perigee altitude733.541 km
Semi-major axis7,162.741 km
Eccentricity0.0071289
Inclination82.8963°
RAAN90.3863°
Arg. of periapsis125.5376°
True anomaly234.58091°
Mean anomaly235.2487°
Eccentric anomaly234.91446°
Mean motion3.58034 °/min
BSTAR0.0014509
Orbital period100.55 mins
Loading maneuver chart data...
Loading historical data...
Loading historical data...
Loading historical data...
Loading historical data...
Loading historical data...
Loading historical data...
Loading historical data...

COSMOS 1275 DEB Visibility forecast

Observer location: undefined°, undefined

Span
Click to sort rows by Start time (UTC) header in descending order
Start Az.
Max El. time (UTC)
Max El. Az.
Max El.
End time (UTC)
End Az.
9 mins2025-01-26 04:47:31.121Z178.119° S2025-01-26 04:51:31.121Z129.071° SE43.569°2025-01-26 04:56:31.121Z11.182° NNE
6 mins2025-01-26 15:20:31.121Z30.122° NE2025-01-26 15:22:31.121Z65.331° ENE27.075°2025-01-26 15:26:31.121Z132.565° SE
6 mins2025-01-26 17:01:31.121Z315.089° NNW2025-01-26 17:04:31.121Z265.807° W23.167°2025-01-26 17:07:31.121Z223.408° SW
|